Location: Laan Hart van Zuid
(52.2563°N, 6.7904°E)
Time: 12:11:45
(UTC+02:00)

ISS - Pass Details

Date: 24 May 2024
Orbit: 411 x 419 km, 51.6° (Epoch: 29 May)

Event Time Altitude Azimuth Distance (km) Brightness Sun altitude
Rises 00:03:30 0° 276° (W) 2,367 0.4 -14.6°
Reaches altitude 10° 00:07:23 10° 231° (SW) 1,494 -1.2 -14.8°
Enters shadow 00:07:46 10° 224° (SW) 1,481 -1.2 -14.8°
